DW6145 Weather Reports


Display with metric or nautical units.
time (UTC)temp
F
wind
direction
speed
MPH
gust
MPH
rain 1hr
in
rain 24hr
in
rain mn
in
humidity
%
barometer
mb
20260902083613 82 0 0.0 0.0 0.00 0.00 0.00 48 504.0
20260902083057 81 113 0.0 12.0 0.00 0.00 0.00 48 1268.1
20260902081607 81 0 5.0 12.0 0.00 0.00 0.00 47 575.0
20260902080609 80 43 6.0 15.0 0.00 0.00 0.00 49 889.1
20260902075603 80 0 7.0 16.0 0.00 0.00 0.00 49 1228.6
20260902074602 80 0 5.0 11.0 0.00 0.00 0.00 51 912.6
20260902073602 79 42 1.0 10.0 0.00 0.00 0.00 53 482.2
20260902072608 78 13 1.0 6.0 0.00 0.00 0.00 57 1068.0
20260902071604 78 17 2.0 7.0 0.00 0.00 0.00 59 433.5
20260902070559 77 30 2.0 9.0 0.00 0.00 0.00 60 993.0
20260902065552 76 5 3.0 9.0 0.00 0.00 0.00 61 1025.2
20260902065025 76 28 3.0 8.0 0.00 0.00 0.00 62 1024.0
20260902063545 74 19 3.0 8.0 0.00 0.00 0.00 64 1269.0
20260902062545 74 5 3.0 10.0 0.00 0.00 0.00 65 599.2
20260902060542 72 5 3.0 10.0 0.00 0.00 0.00 67 456.5
20260902055541 72 13 2.0 8.0 0.00 0.00 0.00 68 543.7
20260902054541 71 0 2.0 8.0 0.00 0.00 0.00 69 978.4
20260902054512 71 0 3.0 9.0 0.00 0.00 0.00 69 578.3
20260902052543 71 355 2.0 9.0 0.00 0.00 0.00 70 666.9
20260902051543 70 13 2.0 9.0 0.00 0.00 0.00 70 665.7
20260902050542 70 12 2.0 8.0 0.00 0.00 0.00 70 1188.0
20260902045537 70 346 3.0 9.0 0.00 0.00 0.00 70 496.8
20260902045013 70 11 3.0 9.0 0.00 0.00 0.00 70 605.6
20260902043535 70 5 1.0 7.0 0.00 0.00 0.00 70 404.9
20260902043025 70 355 2.0 7.0 0.00 0.00 0.00 70 735.2
20260902041536 70 5 2.0 9.0 0.00 0.00 0.00 70 1085.0
20260902040535 70 28 3.0 9.0 0.00 0.00 0.00 70 1000.5
20260902035535 70 0 3.0 9.0 0.00 0.00 0.00 70 1159.9
20260902034536 70 0 3.0 9.0 0.00 0.00 0.00 70 1209.9
20260902033531 70 355 2.0 8.0 0.00 0.00 0.00 70 804.0
20260902033013 70 355 3.0 10.0 0.00 0.00 0.00 70 1005.7
20260902031527 70 5 3.0 9.0 0.00 0.00 0.00 70 492.6
20260902030525 70 17 2.0 10.0 0.00 0.00 0.00 70 612.4
20260902025525 70 0 1.0 8.0 0.00 0.00 0.00 70 1148.2
20260902024524 71 24 1.0 8.0 0.00 0.00 0.00 69 723.6
20260902024012 71 17 2.0 9.0 0.00 0.00 0.00 69 458.9
20260902022517 71 348 3.0 9.0 0.00 0.00 0.00 68 1139.6
20260902021518 71 355 4.0 10.0 0.00 0.00 0.00 68 439.9
20260902020516 71 355 3.0 9.0 0.00 0.00 0.00 69 583.8
20260902015514 71 355 2.0 9.0 0.00 0.00 0.00 69 577.4
20260902014511 71 0 3.0 10.0 0.00 0.00 0.00 69 1040.2
20260902013512 71 11 3.0 8.0 0.00 0.00 0.00 68 957.5
20260902012507 71 355 4.0 12.0 0.00 0.00 0.00 68 598.3
20260902011508 72 344 4.0 10.0 0.00 0.00 0.00 68 468.9
20260902010948 72 9 2.0 7.0 0.00 0.00 0.00 67 580.3
20260902005505 72 0 2.0 10.0 0.00 0.00 0.00 66 415.5
20260902004506 72 9 4.0 11.0 0.00 0.00 0.00 65 822.4
20260902003504 73 15 3.0 11.0 0.00 0.00 0.00 65 1036.9
20260902002504 73 31 3.0 11.0 0.00 0.01 0.00 65 609.4
20260902001501 73 349 2.0 9.0 0.00 0.01 0.00 66 478.1
20260902000503 72 351 4.0 10.0 0.00 0.01 0.00 66 560.0
20260901235939 72 348 3.0 10.0 0.00 0.01 0.00 66 611.2
20260901234457 73 0 5.0 12.0 0.00 0.01 0.00 65 634.1
20260901233458 73 348 5.0 12.0 0.00 0.01 0.00 64 580.3
20260901232457 74 0 5.0 13.0 0.00 0.01 0.00 63 587.8
20260901231459 75 326 4.0 12.0 0.00 0.01 0.00 60 1238.9
20260901230453 77 5 2.0 8.0 0.00 0.01 0.00 58 458.8
20260901225453 77 26 1.0 6.0 0.00 0.01 0.00 58 466.6
20260901224447 77 27 1.0 8.0 0.00 0.01 0.00 59 999.5
20260901223447 76 30 2.0 8.0 0.00 0.01 0.00 60 485.6
20260901222448 76 24 3.0 9.0 0.00 0.22 0.00 60 872.2
20260901221441 76 39 5.0 11.0 0.00 0.57 0.00 60 1074.9
20260901220924 76 0 6.0 14.0 0.00 0.63 0.00 60 466.0
20260901215438 75 355 5.0 11.0 0.00 0.63 0.63 64 518.8
20260901214919 75 355 4.0 9.0 0.00 0.63 0.63 64 417.9
20260901213431 75 355 3.0 9.0 0.00 0.63 0.63 64 695.7
20260901212433 76 355 2.0 5.0 0.00 0.63 0.63 64 829.5
20260901211430 76 355 2.0 5.0 0.00 0.63 0.63 63 800.1
20260901210431 76 355 2.0 5.0 0.00 0.63 0.63 62 911.9
20260901205907 76 351 2.0 6.0 0.00 0.63 0.63 62 1089.5
20260901204430 76 0 1.0 3.0 0.00 0.63 0.63 62 764.2
20260901203431 76 0 3.0 6.0 0.00 0.63 0.63 61 934.7
20260901202911 76 12 2.0 7.0 0.00 0.63 0.63 61 1131.5
20260901201430 77 0 1.0 4.0 0.00 0.63 0.63 61 406.7
20260901200429 78 0 0.0 2.0 0.00 0.63 0.63 59 990.8
20260901195425 78 0 1.0 3.0 0.00 0.63 0.63 59 417.9
20260901194424 78 0 1.0 2.0 0.00 0.63 0.63 59 550.0
20260901193425 78 0 2.0 6.0 0.00 0.63 0.63 58 824.6
20260901192422 78 100 2.0 4.0 0.00 0.63 0.63 58 465.6
20260901191421 79 117 2.0 4.0 0.00 0.63 0.63 58 480.6
20260901190420 79 136 1.0 5.0 0.00 0.63 0.63 57 1016.4
20260901185416 80 137 0.0 4.0 0.00 0.63 0.63 56 1264.5
20260901184416 80 137 0.0 3.0 0.00 0.63 0.63 56 489.5
20260901183857 80 137 0.0 0.0 0.00 0.63 0.63 55 609.1
20260901182412 81 137 0.0 0.0 0.00 0.63 0.63 54 581.4
20260901181411 81 137 0.0 3.0 0.00 0.63 0.63 52 439.7
20260901180412 82 137 0.0 0.0 0.00 0.63 0.63 52 718.8
20260901175407 83 137 0.0 0.0 0.00 0.63 0.63 51 532.6
20260901174404 83 137 0.0 0.0 0.00 0.63 0.63 50 432.7
20260901173406 84 137 0.0 0.0 0.00 0.63 0.63 48 518.0
20260901172404 84 137 0.0 0.0 0.00 0.63 0.63 48 1010.1
20260901171358 85 137 0.0 0.0 0.00 0.63 0.63 48 1187.1
20260901170359 85 137 0.0 0.0 0.00 0.63 0.63 46 736.1
20260901165358 85 137 0.0 0.0 0.00 0.63 0.63 47 800.8
20260901164358 86 137 0.0 0.0 0.00 0.63 0.63 46 937.0
20260901163359 87 137 0.0 0.0 0.00 0.63 0.63 45 776.5
20260901162353 87 137 0.0 0.0 0.00 0.63 0.63 44 785.5
20260901161355 86 137 0.0 0.0 0.00 0.63 0.63 44 1305.6
20260901160354 87 131 0.0 0.0 0.00 0.63 0.63 44 421.5
20260901155348 87 131 0.0 0.0 0.00 0.63 0.63 41 428.6
20260901154349 88 131 0.0 0.0 0.00 0.63 0.63 41 820.7
20260901153349 88 131 0.0 0.0 0.00 0.63 0.63 41 1128.7
20260901152346 87 131 0.0 0.0 0.00 0.63 0.63 41 634.2
20260901151347 88 131 0.0 0.0 0.00 0.63 0.63 40 492.6
20260901150347 88 131 0.0 0.0 0.00 0.63 0.63 40 672.1
20260901145348 87 131 0.0 0.0 0.00 0.63 0.63 41 628.1
20260901144339 87 121 0.0 0.0 0.00 0.63 0.63 41 1159.4
20260901143825 87 142 0.0 0.0 0.00 0.63 0.63 41 490.4
20260901142340 87 142 0.0 0.0 0.00 0.63 0.63 40 434.5
20260901141817 87 111 0.0 0.0 0.00 0.63 0.63 41 889.9
20260901140334 87 139 0.0 0.0 0.00 0.63 0.63 40 1187.1
20260901135333 86 110 0.0 0.0 0.00 0.63 0.63 41 584.4
20260901134331 86 98 0.0 0.0 0.00 0.63 0.63 41 933.7
20260901133809 86 109 0.0 0.0 0.00 0.63 0.63 43 405.8
20260901132330 86 0 0.0 0.0 0.00 0.63 0.63 43 499.2
20260901131817 85 0 0.0 0.0 0.00 0.63 0.63 44 898.0
20260901130325 86 0 0.0 0.0 0.00 0.63 0.63 42 621.8
20260901125327 87 64 0.0 0.0 0.00 0.63 0.63 41 730.7
20260901124326 87 13 0.0 0.0 0.00 0.63 0.63 43 806.0
20260901123327 86 114 0.0 0.0 0.00 0.63 0.63 43 692.1
20260901122320 86 0 0.0 0.0 0.00 0.63 0.63 43 837.9
20260901121318 86 0 0.0 0.0 0.00 0.63 0.63 43 1193.5
20260901120318 85 105 0.0 0.0 0.00 0.63 0.63 42 504.4
20260901115313 85 49 0.0 0.0 0.00 0.63 0.63 44 641.7
20260901114311 85 42 0.0 0.0 0.00 0.63 0.63 45 879.7
20260901113744 85 50 0.0 0.0 0.00 0.63 0.63 42 464.3
20260901112306 84 61 0.0 0.0 0.00 0.63 0.63 44 436.1
20260901111306 84 58 0.0 0.0 0.00 0.63 0.63 44 570.6
20260901110806 84 92 0.0 0.0 0.00 0.63 0.63 45 520.7
20260901105737 84 0 0.0 0.0 0.00 0.63 0.63 44 790.0
20260901104303 83 0 0.0 0.0 0.00 0.63 0.63 44 647.9
20260901103739 82 0 0.0 0.0 0.00 0.63 0.63 45 460.7
20260901102742 82 32 0.0 0.0 0.00 0.63 0.63 47 909.1
20260901101259 82 26 0.0 0.0 0.00 0.63 0.63 46 1053.6
20260901100259 82 0 0.0 0.0 0.00 0.63 0.63 47 585.0
20260901095300 82 89 0.0 0.0 0.00 0.63 0.63 46 1096.8
20260901094301 82 0 0.0 0.0 0.00 0.63 0.63 46 1173.5
20260901093255 81 94 7.0 18.0 0.00 0.63 0.63 47 615.6
20260901092255 81 90 10.0 16.0 0.00 0.63 0.63 48 975.3
20260901091253 80 0 11.0 18.0 0.00 0.63 0.63 47 589.4
20260901090255 80 0 9.0 16.0 0.00 0.63 0.63 47 955.0
20260901085251 80 115 8.0 16.0 0.00 0.63 0.63 49 938.9
20260901084249 80 53 9.0 14.0 0.00 0.63 0.63 50 998.1